Regional Weather Roundup
Issued by NWS New Orleans/Baton Rouge, LA

Home | Current Version | Previous Version | Text Only | Print | Product List | Glossary Off
Versions: 1 2 3 4 5 6 7 8 9 10 11 12 13 14 15 16 17 18 19 20 21 22 23 24 25 26 27 28 29 30 31 32 33 34 35 36 37 38 39 40 41 42 43 44 45 46 47 48 49 50

716
ASUS44 KLIX 280305
RWRLIX
NEW ORLEANS REGIONAL WEATHER ROUNDUP
NATIONAL WEATHER SERVICE NEW ORLEANS LA
900 PM CST FRI FEB 27 2015

NOTE: "FAIR" INDICATES FEW OR NO CLOUDS BELOW 12,000 FEET WITH NO
      SIGNIFICANT WEATHER AND/OR OBSTRUCTIONS TO VISIBILITY.
      SKY/WX - SKY CONDITION AND SIGNIFICANT WEATHER.
      TMP - AIR TEMPERATURE.     DP    - DEWPOINT TEMPERATURE.
      RH  - RELATIVE HUMIDITY.   PRES  - PRESSURE.
      HI  - HEAT INDEX.          WCI   - WIND CHILL INDEX.

*  THESE STATIONS ARE NOT NWS OR FAA STATIONS AND ARE NOT UNDER
   NWS QUALITY CONTROL.

LAZ038-040-048-061>063-065>067-069-280400-
SOUTHEAST LOUISIANA

CITY           SKY/WX    TMP DP  RH WIND       PRES   REMARKS
N.O. AUDUBON     N/A     47  36  65 MISG        N/A
N.O. INTL ARPT PTCLDY    46  34  62 N13       30.40R
N.O. LAKEFRONT CLEAR     49  35  58 NE15      30.40R
SLIDELL        CLEAR     39  33  79 CALM      30.39R
BATON ROUGE    CLEAR     43  30  60 NE5       30.42R
BOOTHVILLE     MOCLDY    50  41  71 VRB7      30.35R
BELLE CHASSE   PTCLDY    47  31  53 N6        30.39R
BOGALUSA*        N/A     43  32  66 NE3       30.41R
GALLIANO*      MOCLDY    48  39  72 MISG      30.37R
NEW ROADS*       N/A     38  29  70 N8        30.44R WCI  32
GONZALES*        N/A     45  32  61 N3        30.41R
HAMMOND*       CLEAR     39  32  75 CALM      30.42R
HOUMA*         PTCLDY    45  35  67 N12       30.38R
PORT FOURCHON* CLEAR     50  39  66 N8        30.39R

$$

MSZ070-080>082-280400-
SOUTHERN MISSISSIPPI

CITY           SKY/WX    TMP DP  RH WIND       PRES   REMARKS
MCCOMB         CLEAR     41  27  57 N9        30.40R
GULFPORT       CLEAR     45  31  58 NE7       30.38R
BILOXI         CLEAR     46  32  58 NE12      30.38R
PASCAGOULA     PTCLDY    45  31  58 N10       30.39R

$$

COASTAL OBSERVATIONS
LAKE AND NEARSHORE STATIONS

STATION/POSITION TIME  TEMP    WIND        PRES    WAVE
                       AIR SEA DIR/SP/G            HT/PER
                 (UTC) (F)     (DEG/KT/KT) (MB)    (FT/S)
PASCAGOULA       0300   47      10/  9/ 12 1028.4
WAVELAND YACHT   0300   47 50   30/ 11/ 12 1028.5
GRAND ISLE       0300   51 53   50/ 11/ 15 1028.0
SOUTHWEST PASS   0300   53 48   40/ 12/ 14 1027.4
NEW CANAL        0300   48      30/ 14/ 16 1029.3
SHELL BEACH      0300   49 51   10/ 17/ 21 1028.5

OFFSHORE STATIONS

STATION/POSITION TIME  TEMP    WIND        PRES    WAVE
                       AIR SEA DIR/SP/G            HT/PER
                 (UTC) (F)     (DEG/KT/KT) (MB)    (FT/S)
64 S DAUPHIN ISL 0226   57 69   40/ 19/ 23 1027.1    5/ 6

$$




USA.gov is the U.S. government's official web portal to all federal, state and local government web resources and services.